Location: Black Swamp Observatory
(41.3920°N, 84.1250°W)
Time: 00:56:59
(UTC-04:00)

Vanguard 1 Rocket - Visible Passes

Search period start: 26 June 2022 00:00
Search period end: 06 July 2022 00:00
Orbit: 651 x 4224 km, 34.3° (Epoch: 25 June)

Date Brightness Start Highest point End Pass type
(mag) Time Alt. Az. Time Alt. Az. Time Alt. Az.
26 Jun 8.0 00:02:36 10° WSW 00:08:46 37° SSW 00:08:46 37° SSW visible
26 Jun 8.8 04:58:33 10° SSW 04:58:33 10° SSW 04:58:56 10° SSW visible
26 Jun 8.4 22:49:49 10° SW 22:58:23 35° S 23:01:54 20° ESE visible
27 Jun 9.1 01:17:25 10° WSW 01:19:12 17° WSW 01:19:12 17° WSW visible
27 Jun 9.1 21:36:51 10° SW 21:46:53 30° SSE 21:52:54 10° ESE visible
28 Jun 7.7 00:04:48 10° WSW 00:12:13 43° S 00:12:13 43° S visible
28 Jun 8.3 22:51:39 10° WSW 23:01:05 42° S 23:05:08 19° ESE visible
29 Jun 8.9 01:19:56 10° WSW 01:22:25 20° WSW 01:22:25 20° WSW visible
29 Jun 9.0 21:38:09 10° SW 21:49:34 38° SSE 21:56:00 10° E visible
30 Jun 7.6 00:07:06 10° WSW 00:14:56 45° S 00:15:15 45° S visible
30 Jun 8.2 22:53:38 10° WSW 23:03:46 47° S 23:08:01 19° ESE visible
01 Jul 8.9 01:22:30 10° W 01:25:18 21° WSW 01:25:18 21° WSW visible
01 Jul 8.9 21:39:41 10° SW 21:52:13 45° S 21:58:58 10° E visible
02 Jul 7.7 00:09:26 10° W 00:17:34 46° S 00:18:00 45° S visible
02 Jul 8.2 22:55:43 10° WSW 23:06:24 51° S 23:10:41 20° ESE visible
03 Jul 9.0 01:25:06 10° W 01:27:56 20° WSW 01:27:56 20° WSW visible
03 Jul 8.8 21:41:25 10° WSW 21:54:50 51° S 22:01:51 10° E visible
04 Jul 7.8 00:11:49 10° W 00:20:10 44° SSW 00:20:35 43° S visible
04 Jul 8.3 22:57:53 10° WSW 23:09:01 53° S 23:13:11 23° ESE visible
05 Jul 9.2 01:27:48 10° W 01:30:26 18° WSW 01:30:26 18° WSW visible
05 Jul 8.8 21:43:17 10° WSW 21:57:25 56° S 22:04:41 10° E visible
